Year,Month,Day,Hour,Minute,Value (Times are PST for temperature in C)
2018,06,02,00,00,11.80
2018,06,02,00,01,11.80
2018,06,02,00,02,11.80
2018,06,02,00,03,11.80
2018,06,02,00,04,11.80
2018,06,02,00,05,11.70
2018,06,02,00,06,11.70
2018,06,02,00,07,11.70
2018,06,02,00,08,11.70
2018,06,02,00,09,11.70
2018,06,02,00,10,11.60
2018,06,02,00,11,11.60
2018,06,02,00,12,11.60
2018,06,02,00,13,11.60
2018,06,02,00,14,11.60
2018,06,02,00,15,11.60
2018,06,02,00,16,11.60
2018,06,02,00,17,11.60
2018,06,02,00,18,11.60
2018,06,02,00,19,11.60
2018,06,02,00,20,11.60
2018,06,02,00,21,11.60
2018,06,02,00,22,11.60
2018,06,02,00,23,11.60
2018,06,02,00,24,11.60
2018,06,02,00,25,11.60
2018,06,02,00,26,11.60
2018,06,02,00,27,11.60
2018,06,02,00,28,11.60
2018,06,02,00,29,11.60
2018,06,02,00,30,11.60
2018,06,02,00,31,11.60
2018,06,02,00,32,11.60
2018,06,02,00,33,11.60
2018,06,02,00,34,11.60
2018,06,02,00,35,11.60
2018,06,02,00,36,11.60
2018,06,02,00,37,11.60
2018,06,02,00,38,11.60
2018,06,02,00,39,11.60
2018,06,02,00,40,11.60
2018,06,02,00,41,11.60
2018,06,02,00,42,11.60
2018,06,02,00,43,11.60
2018,06,02,00,44,11.60
2018,06,02,00,45,11.60
2018,06,02,00,46,11.50
2018,06,02,00,47,11.50
2018,06,02,00,48,11.50
2018,06,02,00,49,11.50
2018,06,02,00,50,11.50
2018,06,02,00,51,11.50
2018,06,02,00,52,11.50
2018,06,02,00,53,11.50
2018,06,02,00,54,11.50
2018,06,02,00,55,11.50
2018,06,02,00,56,11.50
2018,06,02,00,57,11.50
2018,06,02,00,58,11.50
2018,06,02,00,59,11.50
2018,06,02,01,00,11.50
2018,06,02,01,01,11.50
2018,06,02,01,02,11.50
2018,06,02,01,03,11.50
2018,06,02,01,04,11.50
2018,06,02,01,05,11.50
2018,06,02,01,06,11.50
2018,06,02,01,07,11.50
2018,06,02,01,08,11.40
2018,06,02,01,09,11.40
2018,06,02,01,10,11.40
2018,06,02,01,11,11.40
2018,06,02,01,12,11.40
2018,06,02,01,13,11.40
2018,06,02,01,14,11.40
2018,06,02,01,15,11.40
2018,06,02,01,16,11.40
2018,06,02,01,17,11.40
2018,06,02,01,18,11.40
2018,06,02,01,19,11.40
2018,06,02,01,20,11.50
2018,06,02,01,21,11.50
2018,06,02,01,22,11.50
2018,06,02,01,23,11.50
2018,06,02,01,24,11.50
2018,06,02,01,25,11.50
2018,06,02,01,26,11.50
2018,06,02,01,27,11.50
2018,06,02,01,28,11.50
2018,06,02,01,29,11.50
2018,06,02,01,30,11.50
2018,06,02,01,31,11.50
2018,06,02,01,32,11.50
2018,06,02,01,33,11.50
2018,06,02,01,34,11.50
2018,06,02,01,35,11.50
2018,06,02,01,36,11.50
2018,06,02,01,37,11.50
2018,06,02,01,38,11.50
2018,06,02,01,39,11.50
2018,06,02,01,40,11.50
2018,06,02,01,41,11.50
2018,06,02,01,42,11.60
2018,06,02,01,43,11.60
2018,06,02,01,44,11.60
2018,06,02,01,45,11.60
2018,06,02,01,46,11.60
2018,06,02,01,47,11.60
2018,06,02,01,48,11.60
2018,06,02,01,49,11.60
2018,06,02,01,50,11.60
2018,06,02,01,51,11.60
2018,06,02,01,52,11.60
2018,06,02,01,53,11.60
2018,06,02,01,54,11.60
2018,06,02,01,55,11.60
2018,06,02,01,56,11.60
2018,06,02,01,57,11.60
2018,06,02,01,58,11.60
2018,06,02,01,59,11.60
2018,06,02,02,00,11.50
2018,06,02,02,01,11.50
2018,06,02,02,02,11.50
2018,06,02,02,03,11.60
2018,06,02,02,04,11.60
2018,06,02,02,05,11.60
2018,06,02,02,06,11.60
2018,06,02,02,07,11.60
2018,06,02,02,08,11.60
2018,06,02,02,09,11.60
2018,06,02,02,10,11.60
2018,06,02,02,11,11.60
2018,06,02,02,12,11.60
2018,06,02,02,13,11.60
2018,06,02,02,14,11.60
2018,06,02,02,15,11.50
2018,06,02,02,16,11.50
2018,06,02,02,17,11.50
2018,06,02,02,18,11.50
2018,06,02,02,19,11.50
2018,06,02,02,20,11.50
2018,06,02,02,21,11.50
2018,06,02,02,22,11.50
2018,06,02,02,23,11.50
2018,06,02,02,24,11.50
2018,06,02,02,25,11.50
2018,06,02,02,26,11.50
2018,06,02,02,27,11.50
2018,06,02,02,28,11.50
2018,06,02,02,29,11.50
2018,06,02,02,30,11.50
2018,06,02,02,31,11.50
2018,06,02,02,32,11.50
2018,06,02,02,33,11.50
2018,06,02,02,34,11.50
2018,06,02,02,35,11.50
2018,06,02,02,36,11.50
2018,06,02,02,37,11.50
2018,06,02,02,38,11.50
2018,06,02,02,39,11.50
2018,06,02,02,40,11.50
2018,06,02,02,41,11.50
2018,06,02,02,42,11.50
2018,06,02,02,43,11.50
2018,06,02,02,44,11.50
2018,06,02,02,45,11.50
2018,06,02,02,46,11.50
2018,06,02,02,47,11.50
2018,06,02,02,48,11.50
2018,06,02,02,49,11.40
2018,06,02,02,50,11.50
2018,06,02,02,51,11.50
2018,06,02,02,52,11.40
2018,06,02,02,53,11.50
2018,06,02,02,54,11.40
2018,06,02,02,55,11.40
2018,06,02,02,56,11.40
2018,06,02,02,57,11.40
2018,06,02,02,58,11.40
2018,06,02,02,59,11.40
2018,06,02,03,00,11.40
2018,06,02,03,01,11.40
2018,06,02,03,02,11.50
2018,06,02,03,03,11.40
2018,06,02,03,04,11.40
2018,06,02,03,05,11.40
2018,06,02,03,06,11.50
2018,06,02,03,07,11.50
2018,06,02,03,08,11.40
2018,06,02,03,09,11.50
2018,06,02,03,10,11.50
2018,06,02,03,11,11.50
2018,06,02,03,12,11.50
2018,06,02,03,13,11.40
2018,06,02,03,14,11.50
2018,06,02,03,15,11.40
2018,06,02,03,16,11.40
2018,06,02,03,17,11.40
2018,06,02,03,18,11.40
2018,06,02,03,19,11.40
2018,06,02,03,20,11.40
2018,06,02,03,21,11.40
2018,06,02,03,22,11.40
2018,06,02,03,23,11.30
2018,06,02,03,24,11.30
2018,06,02,03,25,11.30
2018,06,02,03,26,11.30
2018,06,02,03,27,11.30
2018,06,02,03,28,11.30
2018,06,02,03,29,11.30
2018,06,02,03,30,11.30
2018,06,02,03,31,11.30
2018,06,02,03,32,11.30
2018,06,02,03,33,11.30
2018,06,02,03,34,11.30
2018,06,02,03,35,11.30
2018,06,02,03,36,11.30
2018,06,02,03,37,11.30
2018,06,02,03,38,11.30
2018,06,02,03,39,11.30
2018,06,02,03,40,11.30
2018,06,02,03,41,11.30
2018,06,02,03,42,11.20
2018,06,02,03,43,11.20
2018,06,02,03,44,11.20
2018,06,02,03,45,11.20
2018,06,02,03,46,11.30
2018,06,02,03,47,11.30
2018,06,02,03,48,11.30
2018,06,02,03,49,11.30
2018,06,02,03,50,11.30
2018,06,02,03,51,11.30
2018,06,02,03,52,11.30
2018,06,02,03,53,11.30
2018,06,02,03,54,11.30
2018,06,02,03,55,11.30
2018,06,02,03,56,11.30
2018,06,02,03,57,11.20
2018,06,02,03,58,11.20
2018,06,02,03,59,11.20
2018,06,02,04,00,11.20
2018,06,02,04,01,11.20
2018,06,02,04,02,11.20
2018,06,02,04,03,11.20
2018,06,02,04,04,11.10
2018,06,02,04,05,11.10
2018,06,02,04,06,11.10
2018,06,02,04,07,11.10
2018,06,02,04,08,11.10
2018,06,02,04,09,11.10
2018,06,02,04,10,11.10
2018,06,02,04,11,11.10
2018,06,02,04,12,11.00
2018,06,02,04,13,11.00
2018,06,02,04,14,11.00
2018,06,02,04,15,11.00
2018,06,02,04,16,11.00
2018,06,02,04,17,11.00
2018,06,02,04,18,11.00
2018,06,02,04,19,10.90
2018,06,02,04,20,10.90
2018,06,02,04,21,10.90
2018,06,02,04,22,10.90
2018,06,02,04,23,10.90
2018,06,02,04,24,10.90
2018,06,02,04,25,10.90
2018,06,02,04,26,10.90
2018,06,02,04,27,10.90
2018,06,02,04,28,10.90
2018,06,02,04,29,11.00
2018,06,02,04,30,10.90
2018,06,02,04,31,11.00
2018,06,02,04,32,11.00
2018,06,02,04,33,11.00
2018,06,02,04,34,11.00
2018,06,02,04,35,11.00
2018,06,02,04,36,11.00
2018,06,02,04,37,11.00
2018,06,02,04,38,11.00
2018,06,02,04,39,11.00
2018,06,02,04,40,11.00
2018,06,02,04,41,11.00
2018,06,02,04,42,11.00
2018,06,02,04,43,11.00
2018,06,02,04,44,11.00
2018,06,02,04,45,11.00
2018,06,02,04,46,11.00
2018,06,02,04,47,11.00
2018,06,02,04,48,11.00
2018,06,02,04,49,11.00
2018,06,02,04,50,11.00
2018,06,02,04,51,11.00
2018,06,02,04,52,11.00
2018,06,02,04,53,11.00
2018,06,02,04,54,11.00
2018,06,02,04,55,11.00
2018,06,02,04,56,11.00
2018,06,02,04,57,11.00
2018,06,02,04,58,11.00
2018,06,02,04,59,11.00
2018,06,02,05,00,11.10
2018,06,02,05,01,11.10
2018,06,02,05,02,11.10
2018,06,02,05,03,11.10
2018,06,02,05,04,11.10
2018,06,02,05,05,11.10
2018,06,02,05,06,11.10
2018,06,02,05,07,11.10
2018,06,02,05,08,11.10
2018,06,02,05,09,11.10
2018,06,02,05,10,11.20
2018,06,02,05,11,11.20
2018,06,02,05,12,11.20
2018,06,02,05,13,11.20
2018,06,02,05,14,11.20
2018,06,02,05,15,11.20
2018,06,02,05,16,11.20
2018,06,02,05,17,11.20
2018,06,02,05,18,11.20
2018,06,02,05,19,11.20
2018,06,02,05,20,11.20
2018,06,02,05,21,11.20
2018,06,02,05,22,11.20
2018,06,02,05,23,11.30
2018,06,02,05,24,11.30
2018,06,02,05,25,11.30
2018,06,02,05,26,11.30
2018,06,02,05,27,11.30
2018,06,02,05,28,11.30
2018,06,02,05,29,11.30
2018,06,02,05,30,11.30
2018,06,02,05,31,11.30
2018,06,02,05,32,11.30
2018,06,02,05,33,11.30
2018,06,02,05,34,11.30
2018,06,02,05,35,11.30
2018,06,02,05,36,11.30
2018,06,02,05,37,11.30
2018,06,02,05,38,11.30
2018,06,02,05,39,11.30
2018,06,02,05,40,11.30
2018,06,02,05,41,11.30
2018,06,02,05,42,11.30
2018,06,02,05,43,11.30
2018,06,02,05,44,11.30
2018,06,02,05,45,11.30
2018,06,02,05,46,11.30
2018,06,02,05,47,11.30
2018,06,02,05,48,11.30
2018,06,02,05,49,11.30
2018,06,02,05,50,11.30
2018,06,02,05,51,11.30
2018,06,02,05,52,11.30
2018,06,02,05,53,11.30
2018,06,02,05,54,11.30
2018,06,02,05,55,11.30
2018,06,02,05,56,11.30
2018,06,02,05,57,11.30
2018,06,02,05,58,11.40
2018,06,02,05,59,11.40
2018,06,02,06,00,11.40
2018,06,02,06,01,11.40
2018,06,02,06,02,11.40
2018,06,02,06,03,11.40
2018,06,02,06,04,11.40
2018,06,02,06,05,11.40
2018,06,02,06,06,11.40
2018,06,02,06,07,11.40
2018,06,02,06,08,11.40
2018,06,02,06,09,11.40
2018,06,02,06,10,11.40
2018,06,02,06,11,11.40
2018,06,02,06,12,11.40
2018,06,02,06,13,11.40
2018,06,02,06,14,11.40
2018,06,02,06,15,11.40
2018,06,02,06,16,11.40
2018,06,02,06,17,11.40
2018,06,02,06,18,11.40
2018,06,02,06,19,11.40
2018,06,02,06,20,11.40
2018,06,02,06,21,11.40
2018,06,02,06,22,11.40
2018,06,02,06,23,11.40
2018,06,02,06,24,11.40
2018,06,02,06,25,11.50
2018,06,02,06,26,11.50
2018,06,02,06,27,11.50
2018,06,02,06,28,11.50
2018,06,02,06,29,11.50
2018,06,02,06,30,11.50
2018,06,02,06,31,11.50
2018,06,02,06,32,11.50
2018,06,02,06,33,11.60
2018,06,02,06,34,11.60
2018,06,02,06,35,11.60
2018,06,02,06,36,11.60
2018,06,02,06,37,11.60
2018,06,02,06,38,11.60
2018,06,02,06,39,11.60
2018,06,02,06,40,11.70
2018,06,02,06,41,11.70
2018,06,02,06,42,11.70
2018,06,02,06,43,11.70
2018,06,02,06,44,11.70
2018,06,02,06,45,11.70
2018,06,02,06,46,11.70
2018,06,02,06,47,11.70
2018,06,02,06,48,11.70
2018,06,02,06,49,11.80
2018,06,02,06,50,11.80
2018,06,02,06,51,11.80
2018,06,02,06,52,11.80
2018,06,02,06,53,11.80
2018,06,02,06,54,11.80
2018,06,02,06,55,11.80
2018,06,02,06,56,11.80
2018,06,02,06,57,11.80
2018,06,02,06,58,11.80
2018,06,02,06,59,11.80
2018,06,02,07,00,11.80
2018,06,02,07,01,11.80
2018,06,02,07,02,11.80
2018,06,02,07,03,11.80
2018,06,02,07,04,11.80
2018,06,02,07,05,11.80
2018,06,02,07,06,11.80
2018,06,02,07,07,11.80
2018,06,02,07,08,11.80
2018,06,02,07,09,11.80
2018,06,02,07,10,11.80
2018,06,02,07,11,11.80
2018,06,02,07,12,11.80
2018,06,02,07,13,11.80
2018,06,02,07,14,11.80
2018,06,02,07,15,11.80
2018,06,02,07,16,11.80
2018,06,02,07,17,11.80
2018,06,02,07,18,11.90
2018,06,02,07,19,11.90
2018,06,02,07,20,11.90
2018,06,02,07,21,11.90
2018,06,02,07,22,11.90
2018,06,02,07,23,12.00
2018,06,02,07,24,12.00
2018,06,02,07,25,12.00
2018,06,02,07,26,12.00
2018,06,02,07,27,12.10
2018,06,02,07,28,12.10
2018,06,02,07,29,12.10
2018,06,02,07,30,12.10
2018,06,02,07,31,12.10
2018,06,02,07,32,12.10
2018,06,02,07,33,12.10
2018,06,02,07,34,12.10
2018,06,02,07,35,12.20
2018,06,02,07,36,12.20
2018,06,02,07,37,12.20
2018,06,02,07,38,12.20
2018,06,02,07,39,12.30
2018,06,02,07,40,12.30
2018,06,02,07,41,12.30
2018,06,02,07,42,12.30
2018,06,02,07,43,12.30
2018,06,02,07,44,12.30
2018,06,02,07,45,12.30
2018,06,02,07,46,12.30
2018,06,02,07,47,12.30
2018,06,02,07,48,12.30
2018,06,02,07,49,12.30
2018,06,02,07,50,12.30
2018,06,02,07,51,12.30
2018,06,02,07,52,12.30
2018,06,02,07,53,12.30
2018,06,02,07,54,12.40
2018,06,02,07,55,12.40
2018,06,02,07,56,12.40
2018,06,02,07,57,12.40
2018,06,02,07,58,12.40
2018,06,02,07,59,12.40
2018,06,02,08,00,12.40
2018,06,02,08,01,12.40
2018,06,02,08,02,12.40
2018,06,02,08,03,12.40
2018,06,02,08,04,12.50
2018,06,02,08,05,12.50
2018,06,02,08,06,12.50
2018,06,02,08,07,12.50
2018,06,02,08,08,12.50
2018,06,02,08,09,12.50
2018,06,02,08,10,12.50
2018,06,02,08,11,12.50
2018,06,02,08,12,12.50
2018,06,02,08,13,12.50
2018,06,02,08,14,12.50
2018,06,02,08,15,12.50
2018,06,02,08,16,12.50
2018,06,02,08,17,12.50
2018,06,02,08,18,12.40
2018,06,02,08,19,12.50
2018,06,02,08,20,12.50
2018,06,02,08,21,12.50
2018,06,02,08,22,12.50
2018,06,02,08,23,12.50
2018,06,02,08,24,12.40
2018,06,02,08,25,12.40
2018,06,02,08,26,12.50
2018,06,02,08,27,12.50
2018,06,02,08,28,12.50
2018,06,02,08,29,12.50
2018,06,02,08,30,12.40
2018,06,02,08,31,12.40
2018,06,02,08,32,12.40
2018,06,02,08,33,12.40
2018,06,02,08,34,12.40
2018,06,02,08,35,12.40
2018,06,02,08,36,12.30
2018,06,02,08,37,12.30
2018,06,02,08,38,12.30
2018,06,02,08,39,12.30
2018,06,02,08,40,12.30
2018,06,02,08,41,12.40
2018,06,02,08,42,12.40
2018,06,02,08,43,12.40
2018,06,02,08,44,12.40
2018,06,02,08,45,12.40
2018,06,02,08,46,12.40
2018,06,02,08,47,12.40
2018,06,02,08,48,12.40
2018,06,02,08,49,12.50
2018,06,02,08,50,12.50
2018,06,02,08,51,12.50
2018,06,02,08,52,12.60
2018,06,02,08,53,12.60
2018,06,02,08,54,12.60
2018,06,02,08,55,12.70
2018,06,02,08,56,12.70
2018,06,02,08,57,12.70
2018,06,02,08,58,12.70
2018,06,02,08,59,12.70
2018,06,02,09,00,12.70
2018,06,02,09,01,12.70
2018,06,02,09,02,12.70
2018,06,02,09,03,12.70
2018,06,02,09,04,12.60
2018,06,02,09,05,12.60
2018,06,02,09,06,12.60
2018,06,02,09,07,12.70
2018,06,02,09,08,12.70
2018,06,02,09,09,12.70
2018,06,02,09,10,12.70
2018,06,02,09,11,12.70
2018,06,02,09,12,12.80
2018,06,02,09,13,12.80
2018,06,02,09,14,12.80
2018,06,02,09,15,12.80
2018,06,02,09,16,12.90
2018,06,02,09,17,12.90
2018,06,02,09,18,12.90
2018,06,02,09,19,12.80
2018,06,02,09,20,12.80
2018,06,02,09,21,12.80
2018,06,02,09,22,12.80
2018,06,02,09,23,12.80
2018,06,02,09,24,12.80
2018,06,02,09,25,12.80
2018,06,02,09,26,12.80
2018,06,02,09,27,12.80
2018,06,02,09,28,12.80
2018,06,02,09,29,12.80
2018,06,02,09,30,12.80
2018,06,02,09,31,12.90
2018,06,02,09,32,12.90
2018,06,02,09,33,12.90
2018,06,02,09,34,12.90
2018,06,02,09,35,13.00
2018,06,02,09,36,13.00
2018,06,02,09,37,13.00
2018,06,02,09,38,13.00
2018,06,02,09,39,13.00
2018,06,02,09,40,13.00
2018,06,02,09,41,13.00
2018,06,02,09,42,13.00
2018,06,02,09,43,13.00
2018,06,02,09,44,13.00
2018,06,02,09,45,13.10
2018,06,02,09,46,13.10
2018,06,02,09,47,13.10
2018,06,02,09,48,13.10
2018,06,02,09,49,13.10
2018,06,02,09,50,13.10
2018,06,02,09,51,13.20
2018,06,02,09,52,13.20
2018,06,02,09,53,13.20
2018,06,02,09,54,13.30
2018,06,02,09,55,13.30
2018,06,02,09,56,13.40
2018,06,02,09,57,13.40
2018,06,02,09,58,13.40
2018,06,02,09,59,13.40
2018,06,02,10,00,13.50
2018,06,02,10,01,13.50
2018,06,02,10,02,13.40
2018,06,02,10,03,13.50
2018,06,02,10,04,13.50
2018,06,02,10,05,13.50
2018,06,02,10,06,13.50
2018,06,02,10,07,13.60
2018,06,02,10,08,13.60
2018,06,02,10,09,13.60
2018,06,02,10,10,13.60
2018,06,02,10,11,13.70
2018,06,02,10,12,13.70
2018,06,02,10,13,13.70
2018,06,02,10,14,13.70
2018,06,02,10,15,13.80
2018,06,02,10,16,13.80
2018,06,02,10,17,13.90
2018,06,02,10,18,14.00
2018,06,02,10,19,14.10
2018,06,02,10,20,14.10
2018,06,02,10,21,14.20
2018,06,02,10,22,14.20
2018,06,02,10,23,14.20
2018,06,02,10,24,14.20
2018,06,02,10,25,14.30
2018,06,02,10,26,14.30
2018,06,02,10,27,14.30
2018,06,02,10,28,14.40
2018,06,02,10,29,14.40
2018,06,02,10,30,14.40
2018,06,02,10,31,14.40
2018,06,02,10,32,14.30
2018,06,02,10,33,14.30
2018,06,02,10,34,14.30
2018,06,02,10,35,14.20
2018,06,02,10,36,14.20
2018,06,02,10,37,14.20
2018,06,02,10,38,14.20
2018,06,02,10,39,14.30
2018,06,02,10,40,14.30
2018,06,02,10,41,14.30
2018,06,02,10,42,14.30
2018,06,02,10,43,14.30
2018,06,02,10,44,14.30
2018,06,02,10,45,14.40
2018,06,02,10,46,14.40
2018,06,02,10,47,14.50
2018,06,02,10,48,14.50
2018,06,02,10,49,14.60
2018,06,02,10,50,14.70
2018,06,02,10,51,14.70
2018,06,02,10,52,14.80
2018,06,02,10,53,14.80
2018,06,02,10,54,14.90
2018,06,02,10,55,14.90
2018,06,02,10,56,15.00
2018,06,02,10,57,15.00
2018,06,02,10,58,15.00
2018,06,02,10,59,15.00
2018,06,02,11,00,15.00
2018,06,02,11,01,15.10
2018,06,02,11,02,15.10
2018,06,02,11,03,15.20
2018,06,02,11,04,15.30
2018,06,02,11,05,15.30
2018,06,02,11,06,15.30
2018,06,02,11,07,15.30
2018,06,02,11,08,15.30
2018,06,02,11,09,15.30
2018,06,02,11,10,15.30
2018,06,02,11,11,15.30
2018,06,02,11,12,15.30
2018,06,02,11,13,15.30
2018,06,02,11,14,15.20
2018,06,02,11,15,15.20
2018,06,02,11,16,15.00
2018,06,02,11,17,15.00
2018,06,02,11,18,15.00
2018,06,02,11,19,14.90
2018,06,02,11,20,14.90
2018,06,02,11,21,14.90
2018,06,02,11,22,14.90
2018,06,02,11,23,14.90
2018,06,02,11,24,14.90
2018,06,02,11,25,15.00
2018,06,02,11,26,15.00
2018,06,02,11,27,15.10
2018,06,02,11,28,15.20
2018,06,02,11,29,15.20
2018,06,02,11,30,15.30
2018,06,02,11,31,15.30
2018,06,02,11,32,15.30
2018,06,02,11,33,15.30
2018,06,02,11,34,15.30
2018,06,02,11,35,15.40
2018,06,02,11,36,15.40
2018,06,02,11,37,15.40
2018,06,02,11,38,15.40
2018,06,02,11,39,15.40
2018,06,02,11,40,15.30
2018,06,02,11,41,15.20
2018,06,02,11,42,15.20
2018,06,02,11,43,15.20
2018,06,02,11,44,15.20
2018,06,02,11,45,15.20
2018,06,02,11,46,15.10
2018,06,02,11,47,15.10
2018,06,02,11,48,15.10
2018,06,02,11,49,15.10
2018,06,02,11,50,15.00
2018,06,02,11,51,15.00
2018,06,02,11,52,14.90
2018,06,02,11,53,14.90
2018,06,02,11,54,14.90
2018,06,02,11,55,14.90
2018,06,02,11,56,14.80
2018,06,02,11,57,14.80
2018,06,02,11,58,14.80
2018,06,02,11,59,14.80
2018,06,02,12,00,14.80
2018,06,02,12,01,14.80
2018,06,02,12,02,14.80
2018,06,02,12,03,14.80
2018,06,02,12,04,14.70
2018,06,02,12,05,14.70
2018,06,02,12,06,14.70
2018,06,02,12,07,14.70
2018,06,02,12,08,14.70
2018,06,02,12,09,14.70
2018,06,02,12,10,14.70
2018,06,02,12,11,14.70
2018,06,02,12,12,14.60
2018,06,02,12,13,14.60
2018,06,02,12,14,14.60
2018,06,02,12,15,14.60
2018,06,02,12,16,14.60
2018,06,02,12,17,14.50
2018,06,02,12,18,14.50
2018,06,02,12,19,14.50
2018,06,02,12,20,14.50
2018,06,02,12,21,14.50
2018,06,02,12,22,14.50
2018,06,02,12,23,14.50
2018,06,02,12,24,14.50
2018,06,02,12,25,14.50
2018,06,02,12,26,14.50
2018,06,02,12,27,14.50
2018,06,02,12,28,14.50
2018,06,02,12,29,14.50
2018,06,02,12,30,14.40
2018,06,02,12,31,14.40
2018,06,02,12,32,14.40
2018,06,02,12,33,14.30
2018,06,02,12,34,14.30
2018,06,02,12,35,14.30
2018,06,02,12,36,14.30
2018,06,02,12,37,14.30
2018,06,02,12,38,14.30
2018,06,02,12,39,14.40
2018,06,02,12,40,14.40
2018,06,02,12,41,14.50
2018,06,02,12,42,14.60
2018,06,02,12,43,14.60
2018,06,02,12,44,14.70
2018,06,02,12,45,14.80
2018,06,02,12,46,14.80
2018,06,02,12,47,14.90
2018,06,02,12,48,15.10
2018,06,02,12,49,15.20
2018,06,02,12,50,15.30
2018,06,02,12,51,15.40
2018,06,02,12,52,15.40
2018,06,02,12,53,15.50
2018,06,02,12,54,15.60
2018,06,02,12,55,15.60
2018,06,02,12,56,15.60
2018,06,02,12,57,15.50
2018,06,02,12,58,15.40
2018,06,02,12,59,15.40
2018,06,02,13,00,15.40
2018,06,02,13,01,15.40
2018,06,02,13,02,15.50
2018,06,02,13,03,15.50
2018,06,02,13,04,15.60
2018,06,02,13,05,15.60
2018,06,02,13,06,15.50
2018,06,02,13,07,15.40
2018,06,02,13,08,15.40
2018,06,02,13,09,15.40
2018,06,02,13,10,15.40
2018,06,02,13,11,15.40
2018,06,02,13,12,15.30
2018,06,02,13,13,15.30
2018,06,02,13,14,15.20
2018,06,02,13,15,15.20
2018,06,02,13,16,15.30
2018,06,02,13,17,15.30
2018,06,02,13,18,15.30
2018,06,02,13,19,15.30
2018,06,02,13,20,15.40
2018,06,02,13,21,15.30
2018,06,02,13,22,15.30
2018,06,02,13,23,15.30
2018,06,02,13,24,15.30
2018,06,02,13,25,15.30
2018,06,02,13,26,15.30
2018,06,02,13,27,15.30
2018,06,02,13,28,15.30
2018,06,02,13,29,15.20
2018,06,02,13,30,15.30
2018,06,02,13,31,15.30
2018,06,02,13,32,15.30
2018,06,02,13,33,15.30
2018,06,02,13,34,15.30
2018,06,02,13,35,15.20
2018,06,02,13,36,15.20
2018,06,02,13,37,15.20
2018,06,02,13,38,15.20
2018,06,02,13,39,15.20
2018,06,02,13,40,15.20
2018,06,02,13,41,15.20
2018,06,02,13,42,15.20
2018,06,02,13,43,15.20
2018,06,02,13,44,15.20
2018,06,02,13,45,15.20
2018,06,02,13,46,15.10
2018,06,02,13,47,15.10
2018,06,02,13,48,15.20
2018,06,02,13,49,15.20
2018,06,02,13,50,15.20
2018,06,02,13,51,15.20
2018,06,02,13,52,15.20
2018,06,02,13,53,15.20
2018,06,02,13,54,15.20
2018,06,02,13,55,15.20
2018,06,02,13,56,15.20
2018,06,02,13,57,15.20
2018,06,02,13,58,15.20
2018,06,02,13,59,15.20
2018,06,02,14,00,15.20
2018,06,02,14,01,15.20
2018,06,02,14,02,15.20
2018,06,02,14,03,15.20
2018,06,02,14,04,15.20
2018,06,02,14,05,15.20
2018,06,02,14,06,15.20
2018,06,02,14,07,15.30
2018,06,02,14,08,15.30
2018,06,02,14,09,15.40
2018,06,02,14,10,15.50
2018,06,02,14,11,15.60
2018,06,02,14,12,15.60
2018,06,02,14,13,15.70
2018,06,02,14,14,15.80
2018,06,02,14,15,15.90
2018,06,02,14,16,15.90
2018,06,02,14,17,16.00
2018,06,02,14,18,16.10
2018,06,02,14,19,16.20
2018,06,02,14,20,16.20
2018,06,02,14,21,16.20
2018,06,02,14,22,16.20
2018,06,02,14,23,16.10
2018,06,02,14,24,16.00
2018,06,02,14,25,16.00
2018,06,02,14,26,16.00
2018,06,02,14,27,16.00
2018,06,02,14,28,16.00
2018,06,02,14,29,16.00
2018,06,02,14,30,16.10
2018,06,02,14,31,16.10
2018,06,02,14,32,16.10
2018,06,02,14,33,16.00
2018,06,02,14,34,16.00
2018,06,02,14,35,16.00
2018,06,02,14,36,16.00
2018,06,02,14,37,16.10
2018,06,02,14,38,16.10
2018,06,02,14,39,16.20
2018,06,02,14,40,16.30
2018,06,02,14,41,16.40
2018,06,02,14,42,16.40
2018,06,02,14,43,16.40
2018,06,02,14,44,16.40
2018,06,02,14,45,16.50
2018,06,02,14,46,16.60
2018,06,02,14,47,16.70
2018,06,02,14,48,16.70
2018,06,02,14,49,16.80
2018,06,02,14,50,16.80
2018,06,02,14,51,16.80
2018,06,02,14,52,16.90
2018,06,02,14,53,16.90
2018,06,02,14,54,16.90
2018,06,02,14,55,16.70
2018,06,02,14,56,16.60
2018,06,02,14,57,16.50
2018,06,02,14,58,16.40
2018,06,02,14,59,16.30
2018,06,02,15,00,16.30
2018,06,02,15,01,16.20
2018,06,02,15,02,16.10
2018,06,02,15,03,16.00
2018,06,02,15,04,16.00
2018,06,02,15,05,16.00
2018,06,02,15,06,16.00
2018,06,02,15,07,16.10
2018,06,02,15,08,16.10
2018,06,02,15,09,16.10
2018,06,02,15,10,16.10
2018,06,02,15,11,16.10
2018,06,02,15,12,16.10
2018,06,02,15,13,16.00
2018,06,02,15,14,16.00
2018,06,02,15,15,15.90
2018,06,02,15,16,15.80
2018,06,02,15,17,15.80
2018,06,02,15,18,15.70
2018,06,02,15,19,15.70
2018,06,02,15,20,15.70
2018,06,02,15,21,15.70
2018,06,02,15,22,15.70
2018,06,02,15,23,15.70
2018,06,02,15,24,15.80
2018,06,02,15,25,15.80
2018,06,02,15,26,15.90
2018,06,02,15,27,15.90
2018,06,02,15,28,15.90
2018,06,02,15,29,15.90
2018,06,02,15,30,15.90
2018,06,02,15,31,15.90
2018,06,02,15,32,15.90
2018,06,02,15,33,15.90
2018,06,02,15,34,15.90
2018,06,02,15,35,15.90
2018,06,02,15,36,16.00
2018,06,02,15,37,16.00
2018,06,02,15,38,16.00
2018,06,02,15,39,16.00
2018,06,02,15,40,16.10
2018,06,02,15,41,16.10
2018,06,02,15,42,16.10
2018,06,02,15,43,16.10
2018,06,02,15,44,16.10
2018,06,02,15,45,16.10
2018,06,02,15,46,16.10
2018,06,02,15,47,16.20
2018,06,02,15,48,16.20
2018,06,02,15,49,16.30
2018,06,02,15,50,16.30
2018,06,02,15,51,16.30
2018,06,02,15,52,16.30
2018,06,02,15,53,16.30
2018,06,02,15,54,16.40
2018,06,02,15,55,16.40
2018,06,02,15,56,16.40
2018,06,02,15,57,16.40
2018,06,02,15,58,16.40
2018,06,02,15,59,16.50
2018,06,02,16,00,16.50
2018,06,02,16,01,16.60
2018,06,02,16,02,16.60
2018,06,02,16,03,16.60
2018,06,02,16,04,16.50
2018,06,02,16,05,16.40
2018,06,02,16,06,16.30
2018,06,02,16,07,16.30
2018,06,02,16,08,16.30
2018,06,02,16,09,16.30
2018,06,02,16,10,16.30
2018,06,02,16,11,16.30
2018,06,02,16,12,16.30
2018,06,02,16,13,16.30
2018,06,02,16,14,16.30
2018,06,02,16,15,16.30
2018,06,02,16,16,16.30
2018,06,02,16,17,16.30
2018,06,02,16,18,16.30
2018,06,02,16,19,16.30
2018,06,02,16,20,16.30
2018,06,02,16,21,16.40
2018,06,02,16,22,16.40
2018,06,02,16,23,16.50
2018,06,02,16,24,16.60
2018,06,02,16,25,16.50
2018,06,02,16,26,16.40
2018,06,02,16,27,16.40
2018,06,02,16,28,16.40
2018,06,02,16,29,16.40
2018,06,02,16,30,16.30
2018,06,02,16,31,16.30
2018,06,02,16,32,16.30
2018,06,02,16,33,16.30
2018,06,02,16,34,16.30
2018,06,02,16,35,16.30
2018,06,02,16,36,16.20
2018,06,02,16,37,16.30
2018,06,02,16,38,16.30
2018,06,02,16,39,16.30
2018,06,02,16,40,16.30
2018,06,02,16,41,16.30
2018,06,02,16,42,16.20
2018,06,02,16,43,16.30
2018,06,02,16,44,16.30
2018,06,02,16,45,16.30
2018,06,02,16,46,16.30
2018,06,02,16,47,16.30
2018,06,02,16,48,16.30
2018,06,02,16,49,16.30
2018,06,02,16,50,16.30
2018,06,02,16,51,16.40
2018,06,02,16,52,16.40
2018,06,02,16,53,16.50
2018,06,02,16,54,16.60
2018,06,02,16,55,16.60
2018,06,02,16,56,16.60
2018,06,02,16,57,16.60
2018,06,02,16,58,16.60
2018,06,02,16,59,16.60
2018,06,02,17,00,16.70
2018,06,02,17,01,16.70
2018,06,02,17,02,16.70
2018,06,02,17,03,16.70
2018,06,02,17,04,16.70
2018,06,02,17,05,16.70
2018,06,02,17,06,16.80
2018,06,02,17,07,16.80
2018,06,02,17,08,16.80
2018,06,02,17,09,16.80
2018,06,02,17,10,16.80
2018,06,02,17,11,16.80
2018,06,02,17,12,16.70
2018,06,02,17,13,16.70
2018,06,02,17,14,16.70
2018,06,02,17,15,16.80
2018,06,02,17,16,16.80
2018,06,02,17,17,16.80
2018,06,02,17,18,16.80
2018,06,02,17,19,16.90